Content
SEND FEEDBACK

Daily
Averages
Monthly
Summary
United States of America

ST. LOUIS - MEMORIAL PLAZA, MISSOURI


Home > North America > United States > Missouri
Elevation: 620 feet     Latitude: 38 38N     Longitude: 090 12W

WEATHER
 
SELECT A DAY
Number of Records: 186,258;   Date Range: 1/1/95 - 8/30/14
 
SHARE

PRINT THIS DATA

[ ← Previous Day ]
WEATHER ALMANAC - JANUARY 16, 2013
[ Next Day → ]
[ °C ]   °F
Weather ElementAverageHighLow
Temperature31.4 °F42.1 °F (2:53 pm)21 °F (5:53 am)
Dewpoint18.8 °F21.9 °F (11:53 pm)16 °F (10:53 am)
Humidity62.3 %85 % (3:53 am)38 % (3:53 pm)
Barometer30.13 in30.18 in (1:53 am)30.05 in (2:53 pm)
Wind Speed3.8 mph11.5 mph (2:53 pm)
Weather ElementAverage
Visibility9.9 mi
Wind DirectionSSE (155.5 °)

Weather ElementTotal
Precipitation---
Heating Degree Days33.5 (Base 65)
Averaged from 22 records on January 16, 2013
WEATHER CONDITIONS BREAKOUT
WIND DIRECTION BREAKOUT
WEATHER BY HOUR - JANUARY 16, 2013
[ °C ]   °F
Local TimeTemperatureDewpointHumidityBarometerVisibilityWind DirectionWind SpeedGust SpeedPrecipitationEventsConditions
1:53 AM24.1 °F19.0 °F81 %30.18 in10.0 miCalmClear
2:53 AM25.0 °F19.0 °F78 %30.17 in10.0 miCalmClear
3:53 AM23.0 °F19.0 °F85 %30.17 in10.0 miWNW (290°)3.5 mphClear
4:53 AM21.9 °F18.0 °F85 %30.14 in10.0 miCalmClear
5:53 AM21.0 °F17.1 °F85 %30.14 in10.0 miSSW (210°)4.6 mphClear
6:53 AM21.0 °F17.1 °F85 %30.16 in10.0 miCalmClear
7:53 AM21.0 °F17.1 °F85 %30.17 in8.0 miWSW (250°)3.5 mphClear
8:53 AM25.0 °F19.0 °F78 %30.16 in10.0 miWSW (250°)3.5 mphClear
9:53 AM28.9 °F18.0 °F64 %30.15 in10.0 miWest (260°)6.9 mphClear
10:53 AM32.0 °F16.0 °F52 %30.14 in10.0 miWSW (250°)6.9 mphClear
11:53 AM36.0 °F17.1 °F46 %30.10 in10.0 miVariable4.6 mphClear
1:53 PM41.0 °F19.0 °F41 %30.06 in10.0 miWSW (250°)9.2 mphClear
2:53 PM42.1 °F19.0 °F40 %30.05 in10.0 miWest (260°)11.5 mphClear
3:53 PM42.1 °F18.0 °F38 %30.06 in10.0 miWSW (250°)9.2 mphClear
4:53 PM39.9 °F19.0 °F43 %30.09 in10.0 miSW (230°)4.6 mphClear
5:53 PM37.9 °F18.0 °F45 %30.09 in10.0 miCalmClear
6:53 PM37.0 °F19.0 °F48 %30.12 in10.0 miSW (230°)3.5 mphClear
7:53 PM35.1 °F21.0 °F57 %30.13 in10.0 miCalmMostly Cloudy
8:53 PM37.0 °F21.0 °F52 %30.14 in10.0 miWSW (250°)3.5 mphMostly Cloudy
9:53 PM33.1 °F21.0 °F61 %30.13 in10.0 miCalmClear
10:53 PM33.1 °F21.0 °F61 %30.14 in10.0 miSSW (210°)3.5 mphPartly Cloudy
11:53 PM34.0 °F21.9 °F61 %30.14 in10.0 miSW (230°)4.6 mphOvercast
Hourly data recorded from KCPS, located miles away from St. Louis - Memorial Plaza, Missouri







STORIES FROM OUR PARTNERS